Weather History for Merida, Mexico

Change the Weather History Date:

Wednesday, July 10, 2013

  Actual Average Record
Temperature  
Mean Temperature 82 °F -  
Max Temperature 94 °F 93 °F 100 °F (2005)
Min Temperature 71 °F 73 °F 69 °F (2014)
Cooling Degree Days 18    
Growing Degree Days 32 (Base 50)    
Moisture  
Dew Point 71 °F    
Average Humidity 74    
Maximum Humidity 93    
Minimum Humidity 49    
Precipitation  
Precipitation 0.00 in - - ()
Sea Level Pressure  
Sea Level Pressure 30.01 in    
Wind  
Wind Speed 5 mph ()    
Max Wind Speed 12 mph    
Max Gust Speed -    
Visibility 6.6 miles    
Events Thunderstorm    
Averages and records for this station are not official NWS values.
T = Trace of Precipitation, MM = Missing Value Source: Averaged Metar Reports

Daily Weather History Graph

Daily Weather History Graph

Search for Another Location

Airport:

Trip Planner

Search our weather history database for the weather conditions in past years. The results will help you decide how hot, cold, wet, or windy it might be!

Date:

Astronomy

Jul. 10, 2013 Rise Set
Actual Time 6:24 AM CDT 7:43 PM CDT
Civil Twilight 5:59 AM CDT 8:08 PM CDT
Nautical Twilight 5:30 AM CDT 8:37 PM CDT
Astronomical Twilight 5:00 AM CDT 9:07 PM CDT
Moon 8:23 AM CDT (7/10) 9:19 PM CDT (7/10)
Length of Visible Light 14h 08m
Length of Day
13h 19m
Waxing Crescent, 5% of the Moon is Illuminated
Jul 10
Waxing Crescent
Jul 15
First Quarter
Jul 22
Full
Jul 29
Last Quarter
Aug 6
New

Hourly Weather History & Observations

Time (CDT) Temp. Heat Index Dew Point Humidity Pressure Visibility Wind Dir Wind Speed Gust Speed Precip Events Conditions
12:45 AM 77.0 °F - 69.8 °F 78% 30.06 in 7.0 mi East 3.5 mph - N/A   Clear
12:50 AM 78 °F - 74 °F 86% 30.04 in 3 mi East 4.5 mph - -  
1:51 AM 77.0 °F - 71.6 °F 83% 30.03 in 7.0 mi East 5.8 mph - N/A   Clear
2:51 AM 77.0 °F - 71.6 °F 83% 30.01 in 7.0 mi East 4.6 mph - N/A   Clear
3:53 AM 75.2 °F - 71.6 °F 89% 30.04 in 7.0 mi Calm Calm - N/A   Clear
4:52 AM 75.2 °F - 71.6 °F 89% 30.00 in 7.0 mi Calm Calm - N/A   Clear
5:48 AM 75.2 °F - 71.6 °F 89% 30.01 in 7.0 mi ENE 9.2 mph - N/A   Clear
6:48 AM 75.2 °F - 71.6 °F 89% 30.03 in 7.0 mi ENE 5.8 mph - N/A   Scattered Clouds
6:50 AM 72 °F - 70 °F 93% 30.00 in 6 mi SE 2.2 mph - -   Scattered Clouds
7:47 AM 77.0 °F - 73.4 °F 89% 30.03 in 7.0 mi East 6.9 mph - N/A   Scattered Clouds
8:48 AM 80.6 °F 85.4 °F 73.4 °F 79% 30.05 in 7.0 mi ENE 11.5 mph - N/A   Scattered Clouds
9:44 AM 84.2 °F 90.9 °F 73.4 °F 70% 30.04 in 7.0 mi East 6.9 mph - N/A   Scattered Clouds
10:45 AM 84.2 °F 90.9 °F 73.4 °F 70% 30.05 in 7.0 mi ESE 8.1 mph - N/A   Mostly Cloudy
11:47 AM 87.8 °F 92.6 °F 69.8 °F 55% 30.05 in 7.0 mi ENE 10.4 mph - N/A   Mostly Cloudy
12:48 PM 89.6 °F 94.7 °F 69.8 °F 52% 30.04 in 7.0 mi ENE 9.2 mph - N/A   Mostly Cloudy
12:50 PM 90 °F - 76 °F 56% 30.03 in 6 mi ESE 4.5 mph - -   Partly Cloudy
1:44 PM 89.6 °F 93.4 °F 68.0 °F 49% 29.99 in 7.0 mi ENE 6.9 mph - N/A   Mostly Cloudy
2:12 PM 91.4 °F 98.4 °F 71.6 °F 52% 29.98 in 7.0 mi North 11.5 mph - N/A   Mostly Cloudy
2:45 PM 89.6 °F 96.2 °F 71.6 °F 55% 29.97 in 7.0 mi NNE 11.5 mph - N/A   Mostly Cloudy
3:36 PM 86.0 °F 91.8 °F 71.6 °F 62% 29.94 in 7.0 mi NE 11.5 mph - N/A Thunderstorm Thunderstorm
3:49 PM 86.0 °F 91.8 °F 71.6 °F 62% 29.94 in 7.0 mi NE 11.5 mph - N/A Thunderstorm Thunderstorm
3:50 PM 92 °F - 76 °F 51% 29.91 in 6 mi SSE 6.7 mph - -   Mostly Cloudy
4:48 PM 84.2 °F 88.4 °F 69.8 °F 62% 29.97 in 7.0 mi NE 6.9 mph - N/A Thunderstorm Thunderstorm
5:50 PM 78.8 °F - 69.8 °F 74% 29.97 in 7.0 mi South 4.6 mph - N/A   Mostly Cloudy
6:46 PM 77.0 °F - 69.8 °F 78% 30.05 in 7.0 mi SSE 11.5 mph - N/A   Overcast
6:50 PM 78 °F - 71 °F 74% 29.99 in 6 mi ESE 8.9 mph - -   Overcast
7:47 PM 75.2 °F - 68.0 °F 78% 29.99 in 7.0 mi East 9.2 mph - N/A   Mostly Cloudy
8:43 PM 75.2 °F - 69.8 °F 83% 30.00 in 7.0 mi SE 4.6 mph - N/A   Mostly Cloudy
9:46 PM 75.2 °F - 69.8 °F 83% 30.08 in 7.0 mi East 3.5 mph - N/A   Scattered Clouds
9:50 PM 77 °F - 71 °F 75% 30.03 in 3 mi ESE 6.7 mph - -   Partly Cloudy
10:45 PM 75.2 °F - 69.8 °F 83% 30.03 in 7.0 mi ESE 6.9 mph - N/A   Scattered Clouds
11:44 PM 73.4 °F - 69.8 °F 88% 30.03 in 7.0 mi ENE 3.5 mph - N/A   Mostly Cloudy